Kokomo, IN

12:09 PM EDT on September 26, 2016 (GMT -0400)
Kokomo Municipal

Weather History for KOKK - September, 2013

Change the Weather History Date:

Saturday, September 14, 2013

  Actual Average (KGUS) Record (KGUS)
Temperature  
Mean Temperature 54 °F -  
Max Temperature 69 °F 75 °F 87 °F (1998)
Min Temperature 39 °F 54 °F 39 °F (2014)
Degree Days  
Heating Degree Days 11    
Growing Degree Days 4 (Base 50)    
Moisture  
Dew Point 40 °F    
Average Humidity 64    
Maximum Humidity 93    
Minimum Humidity 27    
Precipitation  
Precipitation 0.00 in - - ()
Sea Level Pressure  
Sea Level Pressure 30.13 in    
Wind  
Wind Speed 3 mph (SE)    
Max Wind Speed 9 mph    
Max Gust Speed -    
Visibility 9 miles    
Events      
Averages and records for this station are not official NWS values.
T = Trace of Precipitation, MM = Missing Value Source: NWS Daily Summary

Daily Weather History Graph

Daily Weather History Graph

Search for Another Location

Airport or City:

Trip Planner

Search our weather history database for the weather conditions in past years. The results will help you decide how hot, cold, wet, or windy it might be!

Date:

Astronomy

Sep. 14, 2013 Rise Set
Actual Time 6:24 AM CDT 6:54 PM CDT
Civil Twilight 5:56 AM CDT 7:21 PM CDT
Nautical Twilight 5:24 AM CDT 7:54 PM CDT
Astronomical Twilight 4:51 AM CDT 8:27 PM CDT
Moon 3:36 PM CDT (9/14) 12:54 AM CDT (9/14)
Length of Visible Light 13h 24m
Length of Day
12h 30m
Waxing Gibbous, 72% of the Moon is Illuminated
Sep 14
Waxing Gibbous
Sep 19
Full
Sep 26
Last Quarter
Oct 4
New
Oct 11
First Quarter

Hourly Weather History & Observations

Time (CDT) Temp. Windchill Dew Point Humidity Pressure Visibility Wind Dir Wind Speed Gust Speed Precip Events Conditions
12:15 AM 46.4 °F 44.3 °F 41.0 °F 81% 30.13 in 10.0 mi NNW 4.6 mph - N/A   Clear
12:35 AM 46.4 °F 44.3 °F 41.0 °F 81% 30.13 in 10.0 mi NNW 4.6 mph - N/A   Clear
12:55 AM 44.6 °F - 41.0 °F 87% 30.13 in 10.0 mi Calm Calm - N/A   Clear
1:15 AM 44.6 °F - 39.2 °F 81% 30.13 in 10.0 mi Calm Calm - N/A   Clear
1:35 AM 44.6 °F - 39.2 °F 81% 30.13 in 10.0 mi Calm Calm - N/A   Clear
1:55 AM 44.6 °F - 39.2 °F 81% 30.14 in 10.0 mi Calm Calm - N/A   Clear
2:15 AM 44.6 °F - 39.2 °F 81% 30.14 in 10.0 mi Calm Calm - N/A   Clear
2:35 AM 44.6 °F 43.1 °F 39.2 °F 81% 30.15 in 10.0 mi WNW 3.5 mph - N/A   Clear
2:55 AM 44.6 °F - 39.2 °F 81% 30.14 in 10.0 mi Calm Calm - N/A   Clear
3:15 AM 44.6 °F - 39.2 °F 81% 30.15 in 10.0 mi Calm Calm - N/A   Clear
3:35 AM 42.8 °F - 37.4 °F 81% 30.14 in 10.0 mi Calm Calm - N/A   Clear
3:55 AM 42.8 °F - 37.4 °F 81% 30.15 in 10.0 mi Calm Calm - N/A   Clear
4:15 AM 42.8 °F - 37.4 °F 81% 30.15 in 4.0 mi Calm Calm - N/A   Clear
4:35 AM 42.8 °F - 37.4 °F 81% 30.15 in 2.5 mi Calm Calm - N/A   Clear
4:55 AM 42.8 °F - 37.4 °F 81% 30.15 in 10.0 mi Calm Calm - N/A   Clear
5:15 AM 41.0 °F - 37.4 °F 87% 30.15 in 5.0 mi Calm Calm - N/A   Clear
5:35 AM 42.8 °F - 37.4 °F 81% 30.16 in 4.0 mi Calm Calm - N/A   Clear
5:55 AM 39.2 °F - 35.6 °F 87% 30.16 in 1.2 mi Calm Calm - N/A   Clear
6:15 AM 41.0 °F - 37.4 °F 87% 30.16 in 10.0 mi Calm Calm - N/A   Clear
6:35 AM 39.2 °F - 37.4 °F 93% 30.17 in 7.0 mi Calm Calm - N/A   Clear
6:55 AM 41.0 °F - 37.4 °F 87% 30.17 in 4.0 mi Calm Calm - N/A   Clear
7:15 AM 42.8 °F - 39.2 °F 87% 30.18 in 7.0 mi Calm Calm - N/A   Clear
7:35 AM 44.6 °F - 42.8 °F 93% 30.18 in 10.0 mi Calm Calm - N/A   Clear
7:55 AM 46.4 °F - 42.8 °F 87% 30.18 in 10.0 mi Calm Calm - N/A   Clear
8:15 AM 48.2 °F - 42.8 °F 82% 30.19 in 10.0 mi SE 3.5 mph - N/A   Clear
8:35 AM 51.8 °F - 44.6 °F 76% 30.19 in 10.0 mi SE 4.6 mph - N/A   Clear
8:55 AM 53.6 °F - 44.6 °F 72% 30.20 in 10.0 mi SE 6.9 mph - N/A   Clear
9:15 AM 55.4 °F - 44.6 °F 67% 30.20 in 10.0 mi SSE 5.8 mph - N/A   Clear
9:35 AM 55.4 °F - 41.0 °F 58% 30.20 in 10.0 mi SSE 4.6 mph - N/A   Clear
9:55 AM 57.2 °F - 39.2 °F 51% 30.20 in 10.0 mi ESE 4.6 mph - N/A   Clear
10:15 AM 57.2 °F - 39.2 °F 51% 30.19 in 10.0 mi East 8.1 mph - N/A   Clear
10:35 AM 59.0 °F - 37.4 °F 45% 30.19 in 10.0 mi SSE 9.2 mph - N/A   Clear
10:55 AM 60.8 °F - 39.2 °F 45% 30.19 in 10.0 mi East 4.6 mph - N/A   Clear
11:15 AM 60.8 °F - 37.4 °F 42% 30.18 in 10.0 mi SSE 6.9 mph - N/A   Clear
11:35 AM 62.6 °F - 35.6 °F 37% 30.18 in 10.0 mi East 6.9 mph - N/A   Clear
11:55 AM - - - N/A% 30.18 in 10.0 mi SSE 5.8 mph - N/A   Clear
12:15 PM - - - N/A% 30.17 in 10.0 mi SSE 5.8 mph - N/A   Clear
12:35 PM - - - N/A% 30.16 in 10.0 mi ENE 3.5 mph - N/A   Clear
12:55 PM 66.2 °F - 37.4 °F 35% 30.15 in 10.0 mi SSE 8.1 mph - N/A   Clear
1:15 PM 66.2 °F - 35.6 °F 32% 30.15 in 10.0 mi SE 9.2 mph - N/A   Clear
1:35 PM 66.2 °F - 37.4 °F 35% 30.15 in 10.0 mi SE 4.6 mph - N/A   Clear
1:55 PM 66.2 °F - 35.6 °F 32% 30.13 in 10.0 mi SW 3.5 mph - N/A   Clear
2:15 PM 68.0 °F - 37.4 °F 33% 30.13 in 10.0 mi South 5.8 mph - N/A   Clear
2:35 PM 68.0 °F - 35.6 °F 30% 30.12 in 10.0 mi ESE 3.5 mph - N/A   Clear
2:55 PM 68.0 °F - 35.6 °F 30% 30.11 in 10.0 mi SSE 6.9 mph - N/A   Clear
3:15 PM 68.0 °F - 35.6 °F 30% 30.11 in 10.0 mi ESE 3.5 mph - N/A   Clear
3:35 PM 69.8 °F - 35.6 °F 28% 30.10 in 10.0 mi South 4.6 mph - N/A   Clear
3:55 PM 69.8 °F - 35.6 °F 28% 30.10 in 10.0 mi South 4.6 mph - N/A   Clear
4:15 PM 69.8 °F - 33.8 °F 27% 30.09 in 10.0 mi Calm Calm - N/A   Clear
4:35 PM 69.8 °F - 33.8 °F 27% 30.09 in 10.0 mi Calm Calm - N/A   Clear
4:55 PM 69.8 °F - 35.6 °F 28% 30.09 in 10.0 mi Calm Calm - N/A   Clear
5:15 PM 69.8 °F - 37.4 °F 31% 30.09 in 10.0 mi SW 5.8 mph - N/A   Clear
5:35 PM 69.8 °F - 39.2 °F 33% 30.09 in 10.0 mi Calm Calm - N/A   Clear
5:55 PM 68.0 °F - 39.2 °F 35% 30.09 in 10.0 mi Calm Calm - N/A   Clear
6:15 PM 66.2 °F - 42.8 °F 43% 30.09 in 10.0 mi Calm Calm - N/A   Clear
6:35 PM 64.4 °F - 42.8 °F 45% 30.09 in 10.0 mi Calm Calm - N/A   Clear
6:55 PM 60.8 °F - 46.4 °F 59% 30.09 in 10.0 mi NE 3.5 mph - N/A   Clear
7:15 PM 57.2 °F - 44.6 °F 63% 30.09 in 10.0 mi ENE 3.5 mph - N/A   Clear
7:35 PM 55.4 °F - 44.6 °F 67% 30.09 in 10.0 mi East 4.6 mph - N/A   Clear
7:55 PM 55.4 °F - 44.6 °F 67% 30.09 in 10.0 mi East 3.5 mph - N/A   Clear
8:15 PM 53.6 °F - 46.4 °F 77% 30.09 in 10.0 mi SE 5.8 mph - N/A   Clear
8:35 PM 51.8 °F - 44.6 °F 76% 30.10 in 10.0 mi SE 3.5 mph - N/A   Clear
8:55 PM 53.6 °F - 44.6 °F 72% 30.10 in 10.0 mi Calm Calm - N/A   Clear
9:15 PM 53.6 °F - 44.6 °F 72% 30.10 in 10.0 mi Calm Calm - N/A   Clear
9:35 PM 51.8 °F - 44.6 °F 76% 30.09 in 10.0 mi SE 3.5 mph - N/A   Clear
9:55 PM 50.0 °F - 44.6 °F 82% 30.09 in 10.0 mi Calm Calm - N/A   Clear
10:15 PM 51.8 °F - 42.8 °F 71% 30.09 in 10.0 mi Calm Calm - N/A   Clear
10:35 PM 48.2 °F - 42.8 °F 82% 30.09 in 10.0 mi Calm Calm - N/A   Clear
10:55 PM 48.2 °F - 42.8 °F 82% 30.09 in 10.0 mi SE 4.6 mph - N/A   Clear
11:15 PM 48.2 °F - 42.8 °F 82% 30.08 in 10.0 mi SSE 3.5 mph - N/A   Clear
11:35 PM 48.2 °F - 42.8 °F 82% 30.08 in 10.0 mi SE 4.6 mph - N/A   Clear
11:55 PM 48.2 °F - 41.0 °F 76% 30.08 in 10.0 mi SSE 6.9 mph - N/A   Clear